Location: Unspecified
(0.0000°N, 0.0000°E)
Time: 01:24:46
(UTC+00:00)

S-56A Canister/Altair - Pass Details

Date: 21 November 2019
Orbit: 633 x 2499 km, 38.9° (Epoch: 10 December)

Event Time Altitude Azimuth Distance (km) Brightness Sun altitude
Rises 01:17:16 0° 301° (WNW) 2,917 - -60.1°
Reaches altitude 10° 01:19:27 10° 296° (WNW) 2,057 - -59.7°
Maximum altitude 01:23:55 53° 219° (SW) 911 - -58.8°
Drops below altitude 10° 01:29:45 10° 143° (SE) 2,664 - -57.7°
Exits shadow 01:31:37 - 140° (SE) 3,379 11.3 -57.4°
Sets 01:32:55 0° 138° (SE) 3,882 11.6 -57.1°
